Wind_Speed
7 7 7 7 6 5 5 4 4 3 3 3 4 4 4 4 3 3 4 4 5 6 7 7 8 8 9 10 10 11 12 13 13 14 14 13 13 14 14 14 13 12 12
6 7 6 6 5 4 4 4 3 3 3 3 3 3 3 3 3 3 3 3 4 5 6 6 6 7 8 8 8 10 12 12 12 12 12 12 12 13 13 13 13 12 11
5 4 5 5 4 3 3 3 3 3 3 3 3 3 2 3 3 3 3 4 4 4 5 5 5 6 6 6 7 8 9 8 9 10 9 10 11 12 12 13 13 13 12
4 3 4 4 3 3 2 2 2 2 2 2 3 3 2 2 3 3 3 3 3 3 4 4 4 5 5 6 6 7 6 5 7 8 8 9 9 10 11 12 13 13 12
4 4 4 4 4 3 2 1 1 1 1 1 2 1 2 2 3 3 3 3 3 3 3 4 4 4 5 6 6 6 5 5 5 6 7 7 8 8 8 9 10 11 11
4 3 3 4 4 3 2 2 1 1 0 0 0 1 1 2 2 2 2 2 3 3 3 3 4 4 5 5 5 5 5 5 5 6 6 6 6 6 7 7 8 8 8
4 3 3 4 3 3 2 2 1 1 1 1 0 0 1 2 2 2 2 3 3 3 4 4 5 5 5 6 5 5 5 5 5 5 5 6 5 5 5 5 5 5 5
4 4 4 3 3 3 2 2 2 2 1 1 1 1 1 1 2 2 2 3 3 3 4 4 5 6 6 6 5 4 4 4 4 5 5 5 4 4 4 4 4 4 4
4 4 4 3 3 3 2 2 2 2 1 1 0 1 1 1 1 2 2 2 3 3 4 5 6 6 6 6 5 5 5 5 4 3 4 3 3 4 3 3 3 4 5
5 4 4 3 3 2 2 2 2 2 1 1 0 0 0 1 1 1 2 2 3 4 5 6 6 5 5 6 5 5 4 5 5 4 4 4 3 3 4 4 4 5 6
5 5 4 3 3 2 2 2 2 2 1 1 0 0 1 1 1 1 2 2 3 4 5 5 6 6 5 6 5 4 4 5 5 5 5 4 4 4 4 4 5 5 6
5 5 5 4 3 3 2 2 2 2 2 1 1 1 1 1 1 1 2 3 4 5 5 5 6 6 5 6 6 5 5 5 6 5 5 5 6 6 6 6 6 6 6
6 5 5 4 4 3 3 2 2 2 2 1 1 1 1 1 1 2 2 3 4 5 5 5 6 6 6 6 6 6 6 6 6 6 6 6 6 6 6 6 7 7 8
7 6 5 5 4 4 3 3 3 2 1 2 2 2 1 2 2 2 2 3 4 5 6 6 6 7 7 7 6 6 6 7 7 7 7 7 7 8 8 8 7 8 9
7 7 6 5 5 4 4 3 3 2 2 2 2 2 2 3 3 3 4 5 5 6 6 6 6 7 7 7 6 7 7 7 7 7 8 8 9 9 10 10 10 11 12
7 7 7 6 6 5 4 3 3 2 2 2 2 3 3 4 4 4 5 5 7 7 7 7 7 7 7 7 7 7 7 7 8 9 9 10 11 11 12 12 13 14 15
8 8 8 7 6 6 5 4 4 3 3 3 3 3 3 4 4 5 5 6 7 7 8 8 8 8 9 9 9 9 9 9 10 10 11 12 12 12 13 14 15 16 16
10 9 8 8 8 7 6 5 5 4 4 4 4 4 5 5 5 6 6 7 7 8 8 8 9 9 10 10 10 10 11 11 11 12 13 14 14 15 15 16 17 17 17
10 10 9 8 8 8 7 6 6 5 5 5 6 6 6 6 7 7 7 7 8 8 8 9 10 10 10 10 10 11 12 12 13 14 15 16 17 17 18 18 19 19 20
11 10 10 10 9 8 8 7 7 6 6 6 6 6 6 7 7 7 7 8 8 9 9 10 11 11 11 11 11 12 13 14 15 16 16 17 18 18 19 19 20 21 22
11 11 10 10 10 9 9 9 8 8 8 8 7 7 8 8 7 7 8 9 10 11 11 11 12 12 12 13 14 14 15 16 16 17 18 19 19 20 20 21 22 23 23
12 12 11 10 10 11 10 10 10 10 10 10 9 9 9 9 9 9 10 11 11 12 12 12 13 13 14 15 15 15 16 17 18 19 20 21 21 22 23 24 24 25 25
12 12 12 12 12 12 12 12 12 12 12 11 11 11 11 11 11 11 12 12 13 13 13 14 14 15 15 15 16 17 18 19 19 20 21 23 24 25 26 26 27 27 27
13 13 13 13 13 13 13 13 13 13 13 13 13 13 13 12 12 13 13 14 14 14 15 15 15 16 16 16 17 18 19 20 21 22 23 24 25 27 28 28 28 29 30
14 14 13 14 14 13 13 14 14 14 14 15 15 15 14 14 14 14 15 15 15 16 16 16 16 17 17 18 19 20 21 22 23 23 25 26 27 28 30 30 31 32 32
15 15 15 15 14 14 14 14 14 14 14 15 15 15 15 15 15 16 16 16 16 16 17 17 18 19 19 20 22 23 24 24 25 26 28 29 29 30 31 32 33 34 34
Wind_Direction
263 257 252 255 259 257 259 256 255 250 266 272 274 281 289 297 299 301 300 294 293 295 291 286 284 282 280 275 272 268 270 272 269 269 270 272 272 274 274 272 272 273 264
261 258 253 255 252 250 250 249 249 250 266 266 270 276 282 293 310 313 310 304 302 299 298 298 294 288 287 280 279 275 274 269 266 267 270 272 274 275 274 270 269 268 260
257 250 240 242 232 229 241 245 246 248 250 256 264 265 279 296 311 318 307 309 309 312 313 307 300 302 301 295 292 290 284 272 268 269 274 276 276 274 272 267 265 262 255
240 242 233 221 218 221 228 230 218 227 250 259 259 258 286 317 322 326 317 317 320 326 324 319 309 307 309 306 302 302 297 275 268 271 275 277 281 280 272 265 260 257 254
240 241 220 212 213 208 203 194 176 192 242 266 271 282 305 323 329 328 334 334 328 331 331 329 326 321 319 318 318 316 309 289 279 276 278 282 285 284 275 269 260 259 261
239 221 204 201 199 193 186 187 183 169 177 271 328 335 342 344 345 347 359 359 351 344 342 340 337 334 332 325 326 329 321 303 296 293 290 291 287 282 275 267 265 269 270
212 195 192 192 190 184 180 182 173 153 133 96 79 52 21 19 23 21 16 12 4 359 356 351 351 342 330 328 331 331 324 305 300 296 295 295 295 294 288 278 276 275 278
196 189 182 182 182 176 172 171 163 156 126 96 69 59 44 35 31 22 3 353 353 354 348 349 352 350 345 339 341 341 337 317 301 292 294 294 298 299 297 284 282 287 291
199 197 185 175 173 173 172 163 153 142 123 103 74 38 17 48 28 11 3 351 349 346 345 348 349 349 353 353 349 349 351 346 332 322 319 320 307 297 296 295 284 286 286
191 193 194 191 189 188 180 177 172 164 147 152 114 47 6 346 353 347 349 346 350 351 350 347 347 353 355 360 1 1 0 359 352 342 332 326 315 304 304 301 289 281 279
195 194 196 199 195 193 193 198 199 196 195 226 259 299 326 344 345 346 347 342 340 343 340 339 344 346 342 342 354 2 2 2 357 352 349 337 324 311 304 299 291 287 281
198 196 198 208 208 200 197 198 203 207 208 226 270 287 302 313 336 331 323 328 332 336 339 341 345 347 348 344 339 347 357 357 354 348 344 338 329 316 307 305 301 295 289
202 202 206 214 218 216 207 204 201 196 214 237 261 285 302 313 323 317 313 319 326 333 336 335 337 340 340 336 334 335 343 345 347 344 338 334 332 329 325 318 315 315 311
208 210 213 216 219 220 218 224 220 223 245 265 268 282 303 313 321 329 326 328 329 329 331 331 331 332 333 331 331 332 331 332 334 334 334 336 335 331 330 322 314 316 312
215 216 217 219 222 225 223 230 226 231 252 269 268 274 297 311 318 320 321 319 320 321 323 324 326 327 330 329 329 331 328 330 332 331 327 327 326 323 321 318 312 309 307
215 219 221 222 226 226 219 225 216 234 247 261 273 289 294 298 306 309 314 315 317 317 316 319 325 327 327 325 325 330 329 326 323 324 319 315 315 316 316 313 312 310 308
219 221 224 226 229 227 227 233 234 246 253 258 272 283 287 295 302 307 309 314 317 317 315 317 320 319 317 316 317 317 317 317 315 318 318 316 314 312 312 311 310 308 306
219 222 224 227 228 228 230 237 242 251 257 263 271 277 284 291 296 300 303 310 315 314 311 311 314 313 313 314 313 311 309 312 313 314 316 316 314 313 312 311 311 310 309
219 221 222 224 227 230 234 238 245 252 261 267 273 280 286 289 293 296 299 305 313 315 313 313 312 311 311 311 311 310 308 309 310 312 313 312 312 312 311 310 310 310 309
220 222 223 225 228 231 234 237 244 253 263 270 276 283 286 289 292 294 298 304 309 311 311 312 311 310 310 308 308 308 309 310 310 311 312 313 313 312 310 310 309 308 308
223 225 229 231 230 231 235 241 247 255 263 268 275 283 287 288 289 295 298 302 306 307 307 309 311 310 308 307 307 306 308 308 308 309 310 310 310 309 308 308 308 307 306
225 229 232 233 234 234 239 245 252 257 263 267 273 280 285 287 288 293 297 302 304 305 306 306 307 307 307 306 305 305 307 307 307 308 309 309 309 308 307 307 306 306 305
227 231 233 236 237 240 243 248 253 259 262 267 273 278 282 285 287 291 295 298 300 302 303 303 303 305 305 305 304 304 305 306 307 308 309 309 308 308 307 306 305 305 305
232 236 238 239 242 244 246 251 256 261 265 267 271 277 280 283 286 290 293 296 297 300 302 303 303 303 303 303 303 305 306 306 306 307 308 309 310 310 309 308 307 306 305
234 237 241 243 245 249 251 256 261 264 267 269 272 276 279 282 285 289 292 293 295 297 299 301 301 301 302 303 303 304 304 305 306 307 309 309 309 310 309 309 307 306 306
236 238 241 243 247 251 254 257 263 265 269 272 274 277 279 281 284 289 291 292 293 295 298 301 301 301 301 302 302 304 304 304 305 307 308 308 308 308 308 307 307 306 305
Height
5864 5864 5864 5864 5864 5863 5863 5862 5862 5862 5862 5861 5861 5861 5860 5859 5859 5858 5858 5857 5857 5856 5855 5855 5854 5854 5853 5853 5852 5852 5851 5850 5850 5851 5851 5851 5851 5850 5849 5849 5848 5845 5844
5862 5862 5862 5862 5862 5862 5862 5862 5862 5861 5861 5861 5860 5860 5859 5859 5858 5858 5857 5856 5856 5855 5854 5854 5853 5852 5851 5850 5849 5848 5847 5845 5845 5846 5847 5847 5847 5847 5846 5845 5845 5844 5843
5861 5861 5861 5861 5861 5861 5861 5861 5861 5860 5860 5860 5859 5859 5859 5858 5858 5857 5856 5856 5855 5854 5853 5853 5852 5851 5850 5849 5847 5846 5843 5841 5842 5843 5844 5845 5844 5843 5842 5841 5841 5841 5841
5859 5859 5860 5860 5860 5860 5860 5860 5860 5860 5859 5859 5859 5858 5858 5857 5857 5856 5856 5855 5854 5853 5853 5852 5851 5850 5849 5848 5846 5845 5843 5841 5842 5843 5843 5843 5842 5840 5838 5837 5837 5838 5839
5858 5858 5859 5859 5859 5860 5860 5860 5859 5859 5859 5859 5858 5858 5857 5857 5857 5856 5855 5854 5854 5853 5852 5851 5850 5849 5848 5847 5845 5844 5843 5842 5842 5842 5842 5841 5840 5837 5835 5834 5835 5836 5836
5857 5857 5858 5858 5859 5859 5859 5859 5859 5859 5859 5858 5858 5858 5857 5857 5856 5856 5855 5854 5854 5853 5852 5851 5850 5849 5848 5846 5845 5843 5842 5842 5841 5841 5841 5840 5838 5837 5835 5835 5835 5835 5834
5856 5857 5858 5858 5859 5859 5859 5859 5859 5859 5858 5858 5858 5858 5857 5857 5856 5856 5855 5854 5854 5853 5852 5851 5850 5849 5847 5846 5844 5843 5842 5841 5841 5840 5840 5839 5838 5837 5836 5835 5835 5834 5833
5856 5857 5857 5858 5858 5858 5858 5859 5858 5858 5858 5858 5858 5857 5857 5857 5856 5856 5855 5855 5854 5853 5852 5851 5850 5849 5847 5845 5844 5843 5842 5841 5840 5840 5839 5838 5837 5837 5836 5836 5835 5834 5833
5856 5857 5857 5858 5858 5858 5858 5858 5858 5858 5858 5858 5857 5858 5857 5857 5856 5856 5855 5855 5854 5853 5852 5851 5850 5849 5847 5845 5844 5843 5842 5841 5840 5839 5839 5838 5837 5836 5836 5835 5835 5834 5833
5855 5856 5857 5857 5857 5858 5858 5858 5858 5858 5858 5857 5857 5857 5857 5857 5856 5856 5856 5855 5854 5853 5852 5851 5850 5849 5847 5846 5844 5843 5842 5841 5840 5839 5838 5838 5837 5836 5835 5835 5834 5833 5833
5855 5856 5856 5857 5857 5857 5858 5858 5858 5858 5857 5857 5857 5857 5857 5856 5856 5856 5855 5855 5854 5853 5852 5851 5850 5848 5847 5846 5844 5843 5842 5841 5840 5839 5838 5837 5837 5836 5835 5834 5833 5833 5832
5854 5855 5856 5856 5857 5857 5857 5857 5857 5857 5857 5857 5857 5856 5856 5856 5856 5855 5855 5854 5853 5853 5852 5851 5849 5848 5847 5845 5844 5843 5842 5840 5839 5839 5838 5837 5836 5835 5834 5833 5832 5831 5830
5854 5854 5855 5855 5856 5856 5856 5856 5856 5856 5856 5856 5856 5856 5856 5856 5855 5855 5854 5854 5853 5852 5851 5850 5849 5847 5846 5845 5843 5842 5841 5840 5839 5838 5837 5836 5835 5834 5833 5832 5830 5829 5828
5853 5853 5854 5855 5855 5855 5855 5856 5856 5856 5856 5856 5856 5855 5855 5855 5855 5854 5854 5853 5852 5851 5850 5849 5848 5846 5845 5844 5843 5842 5841 5840 5838 5837 5836 5835 5834 5833 5832 5831 5829 5827 5826
5851 5852 5853 5853 5854 5854 5855 5855 5855 5855 5855 5855 5855 5855 5855 5854 5854 5853 5853 5852 5852 5851 5849 5848 5847 5846 5844 5843 5842 5841 5840 5839 5838 5836 5835 5834 5833 5832 5830 5829 5828 5826 5824
5850 5851 5852 5852 5853 5853 5854 5854 5854 5854 5854 5854 5854 5854 5854 5853 5853 5852 5852 5851 5850 5849 5848 5847 5846 5845 5844 5843 5841 5840 5839 5838 5836 5835 5834 5833 5831 5830 5828 5826 5825 5823 5821
5848 5849 5850 5851 5852 5852 5853 5853 5853 5853 5853 5853 5853 5853 5853 5852 5852 5851 5851 5850 5849 5847 5846 5845 5844 5843 5842 5841 5840 5839 5838 5836 5835 5833 5832 5830 5829 5827 5825 5824 5822 5820 5817
5846 5847 5848 5849 5850 5851 5851 5852 5852 5852 5852 5852 5852 5852 5851 5851 5851 5850 5849 5848 5847 5846 5845 5844 5843 5842 5841 5840 5838 5837 5836 5834 5833 5831 5830 5828 5826 5824 5822 5820 5818 5816 5814
5844 5845 5847 5848 5848 5849 5850 5850 5851 5851 5851 5851 5851 5850 5850 5849 5849 5848 5848 5847 5846 5844 5843 5842 5841 5840 5839 5838 5836 5835 5833 5832 5830 5829 5827 5825 5823 5821 5819 5816 5814 5812 5809
5842 5844 5845 5846 5847 5847 5848 5849 5849 5849 5849 5849 5849 5849 5848 5848 5847 5847 5846 5845 5844 5843 5842 5841 5839 5838 5837 5835 5834 5832 5831 5829 5827 5825 5823 5821 5819 5817 5814 5812 5810 5807 5804
5840 5841 5843 5844 5845 5845 5846 5847 5847 5847 5848 5848 5847 5847 5847 5846 5845 5845 5844 5843 5842 5841 5840 5838 5837 5835 5834 5833 5831 5829 5828 5826 5824 5822 5819 5817 5815 5813 5810 5807 5805 5802 5799
5838 5839 5840 5841 5842 5843 5844 5845 5845 5845 5846 5845 5845 5845 5844 5844 5843 5843 5842 5841 5840 5838 5837 5835 5834 5832 5831 5829 5828 5826 5824 5822 5820 5818 5815 5813 5810 5808 5805 5802 5799 5796 5793
5835 5836 5838 5839 5840 5841 5841 5842 5842 5843 5843 5843 5843 5842 5842 5841 5841 5840 5839 5838 5837 5835 5834 5833 5831 5829 5828 5826 5824 5822 5820 5818 5816 5813 5811 5808 5805 5802 5799 5796 5793 5790 5787
5832 5834 5835 5836 5837 5838 5838 5839 5839 5840 5840 5840 5840 5839 5839 5838 5838 5837 5836 5835 5833 5832 5831 5829 5827 5826 5824 5822 5820 5818 5816 5814 5811 5808 5806 5803 5799 5796 5793 5789 5786 5783 5779
5829 5831 5832 5833 5834 5835 5835 5836 5836 5836 5837 5836 5836 5836 5835 5835 5834 5833 5832 5831 5830 5828 5827 5825 5823 5821 5820 5818 5816 5813 5811 5808 5806 5803 5800 5797 5793 5790 5786 5782 5779 5775 5771
5826 5827 5829 5829 5830 5831 5832 5832 5833 5833 5833 5833 5832 5832 5831 5831 5830 5829 5828 5827 5826 5824 5823 5821 5819 5817 5815 5813 5810 5808 5805 5803 5800 5797 5793 5790 5787 5783 5779 5775 5771 5767 5763